Location: Wanzleben
(52.0609°N, 11.4408°E)
Time: 07:21:38
(UTC+00:00)

Meteor 2-19 Rocket - Pass Details

Date: 18 September 2020
Orbit: 935 x 959 km, 82.5° (Epoch: 22 October)

Event Time Altitude Azimuth Distance (km) Brightness Sun altitude
Rises 19:55:58 0° 350° (N) 3,643 8.2 -23.0°
Reaches altitude 10° 19:58:31 10° 354° (N) 2,690 7.4 -23.3°
Maximum altitude 20:04:37 64° 76° (ENE) 1,049 4.4 -24.1°
Enters shadow 20:05:41 55° 121° (ESE) 1,132 4.4 -24.2°
